GEFSNGP_500_meanwind_282.txt.gz
Wind_Speed
21 20 21 21 21 21 21 21 22 21 21 20 21 22 22 21 20 21 21 21 20 20 20 19 19 19 19 19 20 20 20 19 19 19 20 20 20 19 19 18 18 18 19 19
23 22 23 23 23 23 23 22 23 22 21 21 22 23 22 21 20 21 21 21 21 21 21 20 20 19 20 20 20 20 20 20 20 20 20 20 19 19 19 18 18 19 19 20
23 23 24 24 23 24 24 24 24 24 22 22 23 23 23 22 22 22 22 22 22 22 22 21 21 21 21 21 21 20 20 20 20 21 20 20 19 19 19 19 19 19 20 19
24 24 25 23 24 24 25 24 25 25 24 24 24 24 24 24 23 23 24 23 23 23 23 22 22 22 21 22 22 21 21 20 20 20 20 20 20 20 20 20 20 20 20 20
27 27 27 25 25 25 26 26 26 27 26 25 25 25 25 25 25 25 25 24 24 24 23 23 23 23 23 22 22 21 21 21 21 21 20 20 20 21 21 21 21 21 20 21
28 29 30 28 27 26 27 28 27 27 27 26 26 26 26 26 26 26 25 25 25 25 25 24 24 24 24 23 23 22 21 21 21 21 20 20 21 21 21 21 21 21 21 22
30 31 31 29 29 28 28 28 27 27 27 27 28 27 26 26 26 26 26 26 26 26 26 26 25 25 24 24 23 23 22 22 22 22 22 22 22 22 22 22 22 22 22 22
30 32 31 29 30 30 30 29 29 29 29 28 28 28 27 27 27 27 27 27 27 27 27 26 26 26 25 25 24 24 23 23 22 22 22 22 22 22 22 22 23 23 23 23
30 31 30 30 31 31 31 31 30 30 30 30 30 30 29 28 27 27 28 28 27 27 27 27 27 26 26 25 25 24 24 24 23 23 23 23 23 23 23 23 23 24 23 24
30 30 30 30 30 30 31 31 31 31 30 30 31 30 30 29 28 28 28 28 27 27 27 26 26 26 26 26 25 25 25 24 24 24 23 23 23 23 23 23 24 24 24 24
31 30 30 30 31 31 31 31 31 32 32 31 32 31 30 30 29 29 30 29 28 28 27 27 27 26 26 26 26 25 25 25 25 25 24 23 24 24 24 24 24 24 25 25
31 31 32 32 32 32 32 32 33 33 33 32 32 32 31 31 31 30 30 30 29 29 28 28 28 27 27 26 26 26 26 25 25 25 25 24 24 24 23 23 24 24 24 25
32 32 32 32 32 32 32 32 32 32 32 32 32 31 31 31 31 31 30 30 30 30 29 29 28 28 28 27 27 27 27 27 27 26 25 26 26 25 24 24 24 24 25 25
31 31 30 30 30 31 31 31 31 31 31 31 31 31 31 31 31 31 31 31 30 30 30 29 29 28 28 28 27 27 27 27 27 27 27 26 26 26 26 26 26 25 25 26
31 31 31 30 31 31 31 31 31 30 30 30 30 29 29 30 30 30 30 30 30 29 29 29 28 28 28 28 28 28 28 28 28 28 28 28 28 28 28 28 28 27 26 26
31 31 30 30 30 30 30 29 29 29 29 29 29 29 29 29 29 29 29 29 29 29 29 30 29 29 29 29 29 29 29 29 29 29 30 29 29 29 29 29 29 28 28 27
30 30 30 30 29 29 29 28 28 28 29 29 29 29 29 29 29 29 29 28 29 29 29 30 30 30 30 30 30 30 30 29 29 29 30 30 29 30 30 30 30 29 28 28
29 29 29 29 30 29 28 28 28 29 30 29 29 29 29 29 29 30 30 29 29 29 29 29 29 29 29 29 28 28 28 29 29 30 30 30 29 29 30 29 29 29 29 28
28 28 28 28 29 29 29 30 30 30 30 30 30 30 30 30 30 30 30 29 29 29 29 29 28 28 28 28 28 28 28 29 29 29 30 30 30 29 29 29 29 29 28 28
27 28 28 29 29 29 29 29 30 31 31 31 30 31 31 31 30 30 29 29 29 30 30 30 29 29 29 29 29 29 29 29 29 29 30 30 29 29 30 29 29 29 29 29
27 27 28 29 29 29 29 29 30 30 30 30 31 31 31 31 31 30 30 29 29 29 29 29 30 30 31 30 30 30 30 30 30 30 30 29 29 30 29 29 29 29 29 29
27 28 28 29 29 29 29 30 29 29 29 30 31 31 31 32 31 31 30 30 30 30 30 30 30 30 31 31 31 31 31 31 30 30 30 29 30 30 30 30 30 30 30 30
28 28 28 29 29 29 29 30 30 30 30 31 31 31 31 31 31 30 30 30 30 30 30 30 30 30 30 30 31 31 30 30 30 30 30 30 30 31 30 31 31 31 31 31
29 28 28 28 28 29 29 30 31 31 31 31 31 31 31 31 30 30 30 30 29 29 29 29 30 30 30 30 31 31 31 30 30 30 30 30 30 31 31 32 32 32 32 31
29 29 29 28 28 29 30 30 30 30 31 31 31 31 30 30 30 30 29 29 29 30 30 29 29 30 30 30 31 31 31 31 31 31 31 31 31 31 31 32 32 32 32 32
28 28 28 29 29 30 30 30 30 31 31 31 31 31 30 30 30 30 30 29 29 29 30 30 30 30 30 30 31 31 31 31 31 31 31 31 31 31 31 32 32 32 31 31
28 28 29 29 30 30 30 31 31 31 31 31 31 31 30 30 30 29 29 30 30 30 30 30 31 31 31 31 31 31 30 31 31 31 31 31 31 31 31 31 31 31 31 31

GEFSNGP_500_meanwind_288.txt.gz
Wind_Speed
20 19 19 18 18 20 21 21 20 19 20 19 18 18 19 19 19 18 17 16 16 17 17 16 17 17 17 17 16 17 17 17 17 17 18 18 18 18 18 17 18 18 18 18
21 21 20 20 19 19 20 21 21 20 20 20 19 19 20 21 20 19 19 18 17 17 17 17 17 18 18 18 18 18 18 18 18 18 18 18 18 18 18 18 18 18 18 18
22 22 21 20 21 21 21 22 22 22 21 20 20 21 21 21 20 19 19 19 19 19 18 18 19 18 19 19 19 19 20 19 19 19 19 19 19 19 19 19 19 18 18 18
24 24 24 21 22 23 23 22 23 23 23 23 23 22 22 22 21 20 20 20 21 21 21 20 20 20 20 20 21 20 20 20 20 20 20 20 20 20 20 20 19 19 19 20
25 25 24 23 23 23 23 23 23 23 23 23 24 23 23 22 22 22 22 23 23 22 22 22 22 22 22 21 21 21 21 21 20 20 21 20 20 20 20 20 19 19 19 20
26 26 26 24 24 24 25 24 23 23 24 24 24 24 23 23 23 23 23 23 23 23 23 23 23 23 23 23 22 22 22 22 21 21 21 21 21 21 20 20 20 20 20 20
27 27 26 25 24 24 25 24 23 23 24 24 24 24 23 23 24 24 24 24 24 24 24 24 24 24 24 23 23 22 23 23 22 22 22 22 22 22 21 21 21 20 20 20
27 27 26 25 26 25 26 25 25 24 24 24 24 25 25 25 25 26 25 25 26 25 25 25 25 24 24 24 24 23 23 23 23 23 22 22 22 22 22 21 21 20 20 20
26 26 25 25 26 26 26 27 26 26 25 25 25 26 26 26 26 26 26 26 26 26 26 26 25 25 25 24 24 24 24 23 23 23 22 22 22 22 22 22 21 21 22 21
26 25 25 26 26 27 27 28 28 28 27 27 27 28 28 28 28 28 27 27 26 27 26 26 26 26 25 25 24 24 24 23 23 23 23 22 22 22 22 22 22 22 22 22
26 25 25 25 26 27 28 29 28 28 29 29 28 28 28 28 28 28 28 28 28 28 27 27 26 26 26 26 26 25 25 24 24 24 24 23 23 23 23 24 23 23 23 23
26 26 27 26 26 27 27 29 29 28 28 29 28 27 27 28 28 29 29 29 29 29 29 29 28 28 28 28 27 26 26 25 25 25 25 24 24 24 24 25 25 25 24 24
28 28 29 28 28 28 28 28 29 29 28 28 28 28 28 28 29 29 30 30 30 30 30 30 29 29 29 29 28 28 27 26 26 26 26 25 25 25 25 25 25 25 25 25
29 29 29 29 29 28 28 28 28 28 28 28 27 27 28 29 29 29 29 29 30 31 31 30 30 30 30 30 29 29 28 28 28 27 27 26 26 26 26 26 25 25 26 26
29 29 29 28 28 28 27 27 27 28 28 28 27 27 28 29 29 28 28 28 29 29 30 30 30 30 30 31 30 30 29 29 28 28 28 27 27 27 27 27 27 27 26 27
28 28 28 27 27 27 27 26 27 28 28 28 28 28 29 29 29 29 29 29 29 28 29 29 29 29 29 30 31 30 30 29 29 28 28 28 28 28 27 28 28 28 27 27
27 27 26 26 26 27 27 27 27 27 27 28 28 29 30 29 30 30 29 29 29 29 29 30 29 29 30 30 31 30 30 30 29 29 29 29 29 29 28 28 29 28 28 28
27 26 25 25 26 26 27 27 27 27 27 27 28 29 30 30 30 30 30 30 30 30 30 30 30 30 30 31 31 31 31 31 30 30 29 29 29 29 29 29 29 29 29 29
26 26 26 25 26 26 26 27 27 28 28 29 29 29 30 30 30 30 30 30 30 31 31 31 31 31 31 31 31 32 32 31 31 31 30 30 30 30 30 30 30 30 30 30
25 26 26 26 26 26 27 28 29 29 29 29 29 30 30 30 30 31 31 31 31 31 31 31 32 32 32 31 32 32 32 32 32 32 31 31 31 31 30 31 30 30 30 29
26 26 27 28 27 27 27 28 29 29 29 29 29 29 29 30 30 31 32 32 32 32 32 32 32 32 31 31 31 31 31 32 32 32 32 31 31 31 31 30 30 30 30 29
26 26 27 27 27 27 28 29 29 29 29 29 29 29 29 29 30 31 31 31 31 32 31 32 32 32 31 31 31 31 31 32 31 31 31 31 31 31 31 30 30 30 30 30
26 26 27 27 27 27 28 29 29 29 29 28 28 29 29 30 30 31 31 31 32 32 32 32 32 31 31 31 31 31 31 30 30 31 31 31 31 31 31 31 31 31 31 31
27 27 26 27 27 28 28 29 29 29 29 28 29 29 30 30 30 31 32 32 32 32 33 33 32 32 32 31 31 31 30 30 30 30 30 30 31 31 31 31 31 31 31 31
28 28 28 27 27 27 28 27 27 28 29 29 30 30 31 31 31 31 32 32 32 33 33 32 32 32 32 31 31 30 30 31 30 30 31 31 31 31 31 31 31 31 31 31
29 29 28 28 28 28 27 27 28 28 29 29 29 30 30 30 31 31 32 32 32 31 31 31 31 31 30 30 31 31 31 31 31 32 32 32 32 32 32 32 32 31 31 32
29 29 28 28 27 27 28 28 28 28 29 30 30 30 31 31 31 31 31 31 30 30 30 30 30 30 31 32 32 32 31 31 32 32 32 33 33 33 33 32 32 32 32 32

GEFSNGP_500_meanwind_294.txt.gz
Wind_Speed
21 21 21 22 22 22 22 23 23 22 21 21 21 20 19 19 19 19 19 19 19 19 19 18 18 17 17 17 18 18 17 17 17 17 16 17 17 17 17 18 17 18 18 18
22 22 22 22 23 23 23 23 23 23 23 22 22 22 21 20 21 21 20 20 20 19 19 19 19 18 18 18 18 18 18 17 17 17 18 18 18 18 18 18 18 18 18 18
23 23 24 24 23 23 24 23 23 23 23 23 22 22 21 20 20 20 21 21 20 20 20 20 20 20 20 20 19 19 18 18 18 18 18 18 18 18 19 19 18 18 18 18
25 25 26 24 24 24 24 24 24 24 24 23 23 23 23 22 21 21 21 21 21 21 22 22 22 21 21 21 21 20 18 18 18 18 18 19 19 19 20 20 19 19 19 19
25 26 26 25 24 24 25 24 23 24 25 25 25 24 23 23 23 21 21 21 21 22 22 22 23 22 22 22 21 20 20 19 19 19 19 19 20 20 20 20 20 20 20 20
25 26 26 24 24 24 25 26 24 25 26 26 26 25 24 24 23 22 21 22 22 21 22 22 23 23 22 22 22 21 21 21 21 20 20 20 21 21 21 21 21 21 21 20
25 26 25 24 24 24 25 25 26 26 26 26 25 25 25 25 24 24 23 23 23 23 23 23 23 22 22 23 22 22 22 23 23 23 23 23 22 22 23 23 23 22 21 21
25 25 25 24 25 25 25 25 26 26 27 27 26 26 25 25 25 25 24 24 25 25 24 24 24 24 24 24 24 24 24 24 24 24 24 24 24 25 24 24 23 23 22 21
26 25 25 25 25 25 25 25 26 26 27 28 27 26 26 26 26 26 26 26 26 26 26 26 26 26 26 26 26 25 25 25 25 25 25 26 26 26 25 25 25 24 23 23
26 26 25 26 26 26 26 26 26 27 28 29 28 27 27 27 27 27 27 28 28 28 27 27 27 27 27 27 27 27 26 25 26 26 26 26 26 26 25 25 25 25 24 24
26 26 27 27 27 27 28 28 28 28 29 29 28 28 28 28 29 29 28 28 29 28 29 28 28 28 28 28 28 28 27 26 26 26 26 26 26 26 25 25 25 26 26 26
28 27 28 27 28 28 28 28 29 29 30 30 30 30 29 29 29 29 29 28 28 28 28 28 28 29 28 29 29 28 28 27 27 27 27 27 27 26 26 26 25 26 26 27
29 28 28 28 28 29 29 29 29 29 29 29 30 30 30 29 29 29 29 28 28 29 29 29 29 29 29 30 30 29 29 28 28 28 28 28 28 27 27 26 27 27 27 27
31 30 30 30 29 30 30 30 30 30 30 30 30 30 30 30 30 30 30 29 29 29 29 29 29 29 29 30 30 30 30 30 30 29 29 29 29 28 28 28 27 28 28 27
31 31 31 31 30 30 30 30 30 30 30 30 31 31 30 30 30 30 30 30 30 30 30 30 30 30 30 31 31 31 32 31 31 30 30 30 30 29 29 28 28 28 29 29
30 31 31 31 31 30 30 30 30 30 30 29 30 30 31 31 31 31 30 30 30 30 30 31 31 30 30 31 32 32 32 31 31 31 31 31 30 30 30 30 30 30 29 29
30 30 30 30 30 30 30 30 30 30 30 30 29 29 30 30 30 31 31 31 31 31 31 31 31 31 31 31 32 31 31 31 32 32 32 32 32 32 32 32 31 31 31 30
29 29 29 29 29 29 29 30 30 30 29 29 29 29 29 30 30 31 31 31 31 31 31 31 31 31 32 33 33 33 32 32 33 33 33 33 33 33 33 33 33 33 32 32
28 28 29 29 30 30 30 29 29 29 29 29 29 29 29 30 30 31 31 31 31 31 31 32 32 32 32 33 33 32 33 33 34 34 34 34 34 34 34 34 34 34 33 33
27 27 28 28 29 30 30 30 29 30 30 30 31 30 31 31 31 31 32 32 32 32 32 32 32 33 33 33 33 32 33 34 35 35 35 34 34 34 34 34 34 34 34 33
27 27 27 27 28 29 29 30 30 30 30 30 31 31 32 32 33 33 32 32 32 33 33 33 32 32 33 33 34 34 34 35 35 35 35 35 34 33 33 33 33 33 33 33
27 27 27 27 28 28 29 29 30 30 30 30 31 31 32 32 33 33 33 33 33 33 32 33 33 33 34 34 34 35 35 36 36 35 35 35 34 33 32 32 32 33 33 33
26 27 27 28 28 28 28 29 29 29 30 30 30 31 31 32 32 32 32 32 32 32 32 32 33 34 35 35 35 36 36 36 36 35 35 34 33 32 32 32 32 32 33 33
25 26 27 27 28 28 28 28 29 30 30 30 30 30 30 31 31 31 31 32 31 31 32 32 33 34 34 35 35 36 36 35 35 35 34 33 32 31 31 32 32 32 32 32
26 26 26 26 27 27 28 28 28 29 29 30 30 30 30 30 30 30 30 31 31 31 32 32 33 33 33 33 34 34 34 34 34 34 33 32 31 31 31 32 32 32 32 32
26 26 26 26 27 27 27 27 27 27 28 28 28 28 28 29 28 29 29 29 30 30 31 32 32 32 32 33 33 33 33 33 33 32 31 31 31 32 33 33 32 32 31 31
27 27 27 28 27 27 27 27 26 27 27 27 27 28 28 28 28 28 28 29 30 31 32 32 32 31 32 32 32 32 32 32 31 31 30 31 32 32 33 33 33 33 33 33

GEFSNGP_500_meanwind_300.txt.gz
Wind_Speed
22 22 22 23 23 22 21 22 22 21 21 21 21 20 20 20 20 20 20 20 20 21 21 21 20 20 20 20 19 19 19 19 19 18 19 19 19 19 19 18 18 18 18 18
22 23 23 23 22 22 21 21 21 21 21 21 20 20 20 21 21 21 21 21 21 21 22 21 21 21 20 20 20 20 21 21 20 20 20 20 20 20 20 19 19 18 18 18
23 23 24 24 21 21 22 22 23 22 21 21 21 21 21 21 21 22 22 22 23 22 22 22 22 21 21 20 21 22 22 22 22 21 22 21 20 20 20 20 20 19 19 19
22 23 24 23 21 22 22 23 23 23 23 22 22 22 21 22 22 22 22 22 23 23 23 23 22 22 21 21 21 22 23 22 22 22 22 23 23 21 20 19 19 19 19 19
23 24 24 23 22 23 23 24 24 24 24 24 23 23 22 22 23 23 23 23 23 24 24 23 23 22 22 22 22 22 23 23 22 22 22 22 22 22 21 20 20 19 19 19
23 24 24 23 23 23 23 24 23 24 24 24 25 25 24 24 24 24 23 24 24 24 25 24 24 24 24 23 23 23 23 22 21 21 21 21 21 22 22 22 21 20 19 19
22 24 24 23 22 23 24 23 23 24 25 25 26 27 26 26 25 25 25 25 25 25 25 24 23 23 23 23 23 22 22 22 21 21 21 21 21 21 21 21 22 22 21 20
23 24 23 23 23 24 24 24 24 24 25 25 25 26 27 27 26 26 26 26 26 26 24 24 24 23 23 23 22 23 23 23 23 23 22 22 21 21 22 22 22 22 23 23
23 23 23 24 24 24 25 25 25 25 25 24 25 25 26 27 27 27 27 27 27 26 25 25 25 24 24 24 24 24 24 24 24 24 23 23 23 23 23 23 23 23 24 25
23 23 24 24 24 25 25 25 25 24 25 25 26 26 27 27 27 27 27 28 27 27 26 26 26 26 25 25 25 25 25 25 25 25 25 24 24 24 24 24 24 25 25 25
23 23 23 23 24 24 25 25 26 26 26 27 27 28 28 29 28 27 28 28 28 28 27 27 27 26 26 26 27 27 27 27 27 27 26 25 25 26 26 25 26 26 26 27
23 23 24 24 24 25 25 26 26 27 27 27 27 27 28 28 28 28 28 28 28 28 28 27 27 27 27 27 27 27 27 27 27 27 27 27 27 27 26 27 27 27 27 27
24 24 25 25 25 25 25 26 27 27 27 27 27 28 28 28 28 29 28 27 27 27 28 28 27 28 28 28 28 28 27 27 28 28 29 29 29 28 27 27 27 28 28 27
26 26 26 26 26 26 26 27 28 27 27 27 27 27 27 28 29 30 30 29 28 28 29 29 29 29 29 29 29 29 29 29 28 29 29 29 29 29 28 28 28 29 29 28
27 26 26 26 26 26 26 26 27 27 27 27 27 27 27 28 29 29 30 30 30 30 30 31 31 30 30 30 30 30 30 30 30 29 30 30 30 30 30 29 29 29 29 28
26 26 26 27 27 27 27 26 26 27 27 27 27 28 28 28 29 30 30 30 31 31 31 31 31 31 32 31 31 31 31 31 31 30 30 31 31 31 31 31 31 31 31 30
26 26 27 27 27 27 27 27 27 27 28 28 28 28 29 30 30 30 31 31 31 31 31 31 31 31 32 32 32 32 31 31 31 32 32 32 32 32 33 32 33 33 33 33
26 26 26 26 27 27 27 27 27 28 28 28 29 29 29 29 30 30 30 31 31 31 31 31 31 31 32 32 32 32 32 32 32 33 33 33 33 33 33 34 33 33 34 34
25 25 26 26 26 26 27 28 28 28 29 29 29 29 29 29 30 30 30 30 30 30 30 31 31 31 31 31 32 32 32 33 33 33 34 34 34 33 33 33 33 34 34 34
24 25 25 26 26 26 27 27 28 28 28 29 29 29 29 30 30 30 30 30 30 30 30 30 30 31 31 32 33 33 33 33 33 34 34 34 34 33 33 33 34 34 34 34
24 24 24 25 25 25 26 26 27 28 28 29 29 29 29 30 30 30 30 29 29 29 29 30 30 31 32 32 33 34 34 34 34 34 34 34 34 33 33 34 34 34 34 34
23 23 24 24 25 25 26 26 27 27 28 29 29 29 29 29 29 29 29 29 28 28 28 29 30 30 31 32 33 34 34 34 35 35 35 35 35 34 33 34 34 34 34 34
23 24 24 24 25 25 26 26 27 27 28 28 28 28 28 28 28 28 27 27 27 27 28 28 29 30 30 31 32 33 33 34 34 35 35 35 34 34 34 33 34 33 33 32
24 24 25 25 25 26 26 26 27 27 27 27 27 27 27 27 27 27 27 28 28 28 29 30 30 30 30 31 32 32 33 33 34 34 33 33 33 33 33 32 32 31 31 31
26 26 26 26 26 26 26 26 26 26 26 26 26 26 26 27 27 27 27 28 28 29 29 29 29 30 30 31 31 32 32 33 33 33 32 32 31 31 32 31 31 30 30 31
26 26 26 26 26 26 26 26 26 26 26 26 26 26 26 26 27 27 27 28 28 28 28 28 29 29 30 31 31 32 32 32 32 32 32 31 31 31 31 30 30 30 30 31
25 25 25 26 26 26 27 27 27 26 26 26 25 25 25 26 26 26 26 26 27 27 27 28 29 29 30 30 31 31 31 31 31 31 31 31 31 31 30 30 30 30 30 30